Wind_Speed
2 3 4 4 5 6 6 6 7 8 9 9 8 9 9 10 10 10 10 9 10 11 11 10 9 9 8 8 8 8 8 7 6 5 4 3 3 3 3 3 4 5 5 6
3 4 4 5 5 6 7 7 7 8 9 9 9 9 9 9 10 10 10 10 10 10 10 10 9 9 8 8 8 8 7 7 6 5 4 3 2 2 2 3 4 5 5 5
5 4 5 5 6 6 7 7 7 7 9 9 9 9 10 10 10 10 10 10 10 10 11 10 9 9 9 9 9 8 8 7 7 5 4 3 2 2 2 3 4 4 4 5
5 5 5 6 7 7 7 7 7 8 9 9 9 9 10 10 11 10 9 10 10 10 10 10 10 10 9 9 9 8 8 7 6 5 4 4 3 2 2 3 3 4 4 4
5 6 6 6 6 7 7 7 8 8 9 9 8 9 9 10 10 9 9 10 10 10 10 10 10 10 10 9 9 9 8 7 6 6 5 4 3 3 3 3 3 3 4 4
6 6 6 7 7 8 7 7 7 8 9 9 9 9 9 9 9 9 10 10 10 10 10 11 10 10 10 9 9 9 8 8 7 6 5 4 4 3 3 3 3 3 4 4
6 7 7 7 8 8 8 7 8 8 8 9 9 10 10 9 10 9 10 10 10 11 11 11 11 11 10 9 9 9 8 8 7 6 5 5 4 4 4 3 3 4 4 5
7 7 7 8 8 8 9 8 8 8 8 8 9 9 9 9 9 10 10 11 11 11 12 12 11 11 11 10 10 10 9 8 7 6 5 5 5 4 3 3 3 4 4 5
7 7 8 8 9 9 9 9 8 8 8 8 9 8 9 9 9 9 9 10 10 11 11 12 12 11 11 11 10 10 10 9 8 7 6 5 5 4 4 4 4 4 4 5
8 8 8 9 9 9 9 9 9 8 8 8 8 8 9 8 9 9 9 10 11 11 11 12 12 12 12 12 11 10 10 10 9 8 7 6 6 5 5 5 4 4 5 5
9 9 9 10 10 9 9 10 9 9 8 8 8 8 9 8 9 9 10 11 11 11 12 12 12 12 12 12 11 11 10 10 9 8 8 7 7 6 6 5 5 5 5 6
10 10 10 10 10 9 9 10 10 9 8 8 8 8 8 8 9 9 10 11 12 12 12 12 12 12 12 12 12 12 11 11 10 9 8 8 7 7 7 6 6 6 6 6
11 11 11 11 11 10 10 9 10 10 9 9 9 9 10 10 10 10 11 11 11 11 11 11 12 12 13 13 13 12 12 12 11 10 9 8 8 8 8 7 7 7 7 7
12 12 12 12 11 11 11 11 11 10 9 8 9 9 10 10 10 10 11 11 11 11 11 12 12 12 12 13 13 13 12 12 11 11 10 9 9 8 8 8 8 8 8 8
14 13 12 12 12 12 12 12 12 10 9 9 8 9 10 11 10 10 10 11 11 11 11 12 12 12 12 12 13 13 13 12 12 11 11 10 9 9 9 9 9 9 10 10
16 15 14 14 14 14 14 14 13 12 10 9 9 10 11 11 11 11 11 10 10 10 11 12 12 13 12 12 13 13 13 12 12 12 11 11 10 10 11 11 10 11 11 11
17 16 16 15 15 16 15 14 14 12 11 11 11 10 11 11 11 12 12 11 11 11 12 12 13 13 13 13 13 13 13 13 13 12 12 12 11 11 12 12 12 12 12 12
19 18 17 16 16 17 15 16 15 13 13 13 12 12 12 12 12 13 13 13 13 13 12 13 13 14 14 15 15 14 14 14 14 14 14 13 13 13 13 13 13 14 14 14
20 19 19 18 18 17 16 16 15 15 14 14 13 13 13 13 13 14 14 15 15 15 14 15 15 15 15 15 16 16 15 15 15 16 16 15 15 15 15 15 15 15 16 16
21 21 21 20 19 18 17 16 16 17 16 15 15 14 14 15 15 14 15 16 16 16 16 16 16 16 16 16 17 17 16 16 16 17 17 16 16 17 17 16 16 17 17 18
23 23 23 22 21 20 18 17 18 17 16 17 17 17 16 16 16 15 16 16 17 17 16 17 17 17 17 18 18 18 18 18 18 18 18 18 18 18 18 18 18 19 19 20
24 25 25 24 23 21 19 20 20 19 18 17 18 18 18 18 17 17 17 17 17 17 17 18 18 18 19 19 19 19 19 19 19 19 19 20 19 19 19 20 20 20 21 21
26 25 25 25 24 22 21 21 21 20 20 19 19 19 19 18 18 18 18 18 18 18 18 19 19 19 20 20 20 20 20 21 21 21 21 21 21 21 21 22 22 22 22 23
27 26 26 26 24 23 23 22 22 22 21 21 20 20 20 20 20 20 20 20 20 20 20 20 20 20 21 21 21 21 22 22 23 22 22 22 22 23 23 23 23 24 24 25
27 27 27 27 25 25 24 24 23 23 23 23 22 21 21 21 21 22 22 22 22 22 22 22 21 21 21 22 22 23 24 24 24 24 24 23 24 24 24 24 25 25 26 26
28 28 28 27 27 27 26 25 24 24 24 24 24 23 23 22 22 22 23 23 23 23 23 23 23 23 23 23 24 25 25 25 26 25 25 25 26 26 26 26 26 27 27 28
Wind_Direction
212 198 191 188 181 177 182 188 191 191 191 189 187 186 187 186 191 190 191 191 184 189 187 186 187 190 187 192 193 193 187 191 197 204 213 222 232 251 280 309 325 335 340 342
223 203 196 194 177 176 184 188 195 197 198 198 195 192 194 196 196 194 195 195 193 194 192 188 191 193 192 196 197 193 195 199 205 209 220 222 228 260 288 312 327 334 339 342
222 204 193 187 184 183 183 188 199 204 203 203 202 201 200 202 204 202 200 199 199 201 202 201 199 198 198 201 200 197 199 200 201 207 219 217 228 260 288 311 327 338 343 346
214 204 193 189 191 190 192 194 197 199 205 206 207 206 204 207 210 210 206 206 207 205 205 205 200 201 202 203 202 202 202 200 201 210 216 223 233 262 289 308 327 337 343 348
212 206 201 196 194 197 201 200 199 201 206 208 211 213 209 212 216 216 213 212 214 212 209 206 202 204 203 203 204 205 204 202 207 216 222 224 238 259 284 305 324 332 336 343
214 209 204 202 204 205 205 204 203 204 208 212 216 221 214 215 220 222 220 218 216 215 211 209 208 206 205 204 206 205 206 207 212 216 218 228 237 249 270 292 313 324 329 337
220 215 211 206 207 208 209 210 213 214 218 223 226 229 221 219 223 224 224 220 217 214 213 210 210 206 207 207 208 208 210 210 211 216 224 234 238 249 265 277 294 308 322 332
226 219 217 215 215 218 218 217 222 226 229 229 231 233 225 225 225 224 222 221 216 212 211 211 211 211 213 212 212 211 212 213 214 220 230 240 246 245 256 271 290 302 312 324
225 223 220 219 220 223 221 222 229 231 230 234 235 231 225 227 228 223 219 218 215 212 211 213 215 215 217 216 216 215 216 217 218 225 238 249 247 253 261 269 284 296 307 317
227 229 224 221 222 225 227 227 234 231 227 231 233 228 225 228 228 223 221 220 217 214 214 215 215 215 216 217 217 219 220 220 224 231 242 249 253 257 261 268 279 293 303 308
232 234 232 230 228 229 231 232 234 228 227 230 231 230 227 229 231 227 224 221 221 220 220 218 216 215 217 219 220 220 219 221 227 233 239 246 252 257 261 267 275 286 295 299
233 237 237 234 232 232 236 236 236 228 227 235 236 231 229 228 231 229 226 226 226 227 225 222 221 222 222 224 222 221 221 222 226 232 241 247 249 254 260 267 274 282 288 292
233 239 237 233 233 235 240 240 236 233 237 237 237 236 232 231 231 230 228 230 229 231 231 226 224 226 225 227 224 221 224 225 230 237 243 245 247 253 260 265 271 277 282 287
233 237 237 237 240 241 241 241 238 238 240 238 237 235 231 229 232 230 228 228 229 231 231 229 227 228 229 232 227 226 229 229 233 238 244 246 250 256 262 265 268 274 278 283
235 238 238 237 238 239 238 238 240 243 245 243 235 231 226 228 231 233 232 231 230 230 230 229 231 230 232 234 231 232 233 231 236 242 245 247 253 259 263 267 269 273 278 282
239 241 242 242 241 242 241 239 241 245 244 243 241 238 230 230 232 232 231 231 232 232 232 233 234 235 235 236 234 235 235 237 241 246 247 250 255 261 264 267 271 275 278 282
241 243 245 245 244 242 240 240 243 248 245 243 241 240 235 236 238 237 234 233 236 238 237 236 237 237 238 238 236 238 238 241 244 246 249 253 258 262 264 267 271 275 277 281
241 244 246 246 245 244 242 241 242 246 245 245 243 240 243 245 242 241 241 241 245 245 243 239 237 239 241 239 236 237 240 243 246 248 251 255 259 261 263 268 272 275 278 281
240 242 244 246 246 245 242 242 244 246 247 248 246 244 246 247 245 244 245 246 247 246 244 243 242 242 243 243 242 242 244 247 250 251 253 256 259 262 265 269 273 275 278 281
239 241 242 244 247 246 241 244 248 248 247 248 250 248 249 248 249 248 247 247 248 247 244 243 243 243 244 246 246 246 248 250 252 253 254 257 260 262 265 268 272 275 278 282
242 243 244 245 249 249 245 246 250 252 251 249 250 250 250 251 253 250 248 247 248 248 247 246 245 244 247 248 248 249 250 252 253 255 256 259 261 263 266 269 272 275 278 282
243 244 245 247 248 247 248 248 250 252 252 252 251 251 250 251 251 251 251 250 250 249 248 247 246 245 246 249 250 251 251 253 255 257 258 260 262 265 268 271 273 276 279 282
243 244 245 246 246 248 249 249 249 249 250 250 251 251 251 251 253 254 253 253 253 252 251 248 247 248 249 250 251 251 252 254 256 258 260 262 264 267 270 272 274 276 279 282
244 244 245 246 246 247 248 250 250 250 250 250 251 251 252 252 254 254 254 255 255 253 251 249 250 251 252 252 251 251 252 255 258 259 262 264 266 268 270 272 274 276 279 282
242 244 245 246 246 246 247 249 249 250 251 251 252 253 254 254 255 255 254 255 255 255 255 253 252 254 254 254 253 253 254 257 258 260 264 266 267 269 270 272 274 277 280 282
242 245 246 246 246 247 247 248 249 251 252 252 254 255 254 254 254 255 255 255 254 254 254 254 253 254 255 255 255 255 256 258 260 262 266 268 269 271 272 273 276 278 281 283
Height
5840 5842 5842 5843 5844 5846 5847 5848 5850 5851 5853 5854 5856 5857 5859 5861 5862 5863 5865 5866 5868 5869 5871 5872 5874 5875 5877 5878 5879 5881 5882 5883 5884 5885 5886 5886 5887 5887 5887 5887 5886 5885 5885 5883
5841 5841 5842 5843 5844 5845 5847 5849 5850 5852 5853 5854 5856 5857 5859 5860 5861 5863 5865 5866 5867 5869 5870 5872 5873 5875 5876 5878 5879 5880 5881 5882 5883 5884 5885 5886 5886 5886 5886 5886 5885 5885 5884 5883
5840 5842 5842 5843 5844 5846 5847 5849 5850 5852 5853 5854 5856 5857 5858 5860 5861 5863 5864 5865 5867 5868 5870 5871 5873 5874 5875 5877 5878 5880 5880 5882 5883 5884 5884 5885 5885 5886 5886 5885 5885 5884 5883 5882
5839 5840 5841 5843 5844 5846 5847 5848 5849 5851 5853 5854 5856 5857 5858 5859 5860 5862 5863 5865 5866 5867 5869 5870 5872 5873 5874 5876 5877 5879 5880 5881 5882 5883 5883 5884 5885 5885 5885 5885 5884 5883 5883 5882
5839 5840 5841 5843 5844 5845 5847 5847 5849 5850 5852 5853 5855 5856 5858 5858 5860 5861 5863 5864 5865 5866 5868 5869 5870 5872 5874 5875 5876 5878 5879 5880 5881 5882 5883 5883 5884 5884 5884 5884 5883 5883 5882 5881
5839 5840 5841 5842 5843 5845 5846 5847 5848 5849 5850 5853 5854 5855 5857 5858 5859 5860 5861 5863 5864 5865 5867 5868 5870 5871 5873 5874 5875 5876 5878 5879 5880 5881 5882 5882 5883 5883 5883 5883 5883 5882 5881 5881
5838 5839 5840 5841 5843 5844 5846 5847 5848 5848 5849 5852 5853 5853 5856 5857 5857 5858 5860 5861 5863 5864 5866 5867 5869 5870 5872 5873 5874 5875 5877 5878 5879 5880 5881 5881 5881 5882 5882 5882 5882 5881 5881 5880
5837 5839 5840 5840 5842 5843 5844 5846 5848 5849 5849 5851 5851 5852 5855 5855 5856 5857 5858 5860 5861 5863 5864 5866 5867 5869 5870 5871 5873 5874 5875 5877 5878 5879 5879 5880 5880 5880 5881 5881 5881 5880 5880 5879
5836 5838 5839 5839 5841 5842 5843 5844 5846 5847 5848 5849 5849 5851 5853 5854 5855 5856 5857 5859 5860 5861 5863 5864 5866 5867 5869 5870 5871 5873 5874 5875 5876 5877 5878 5879 5879 5879 5879 5879 5879 5879 5878 5878
5835 5836 5837 5838 5839 5841 5842 5843 5844 5846 5846 5847 5849 5850 5851 5852 5853 5854 5856 5857 5858 5860 5861 5863 5864 5865 5867 5868 5870 5871 5872 5873 5875 5876 5876 5877 5877 5878 5878 5878 5878 5878 5877 5877
5833 5835 5836 5837 5838 5839 5841 5842 5842 5844 5845 5846 5847 5851 5850 5851 5852 5853 5854 5855 5857 5858 5859 5861 5862 5864 5865 5867 5868 5869 5870 5872 5873 5874 5875 5875 5876 5876 5876 5876 5876 5876 5876 5875
5831 5833 5833 5835 5836 5837 5838 5839 5841 5842 5843 5844 5846 5850 5848 5849 5850 5851 5853 5854 5855 5856 5857 5859 5860 5862 5863 5865 5866 5867 5868 5870 5871 5872 5873 5873 5874 5874 5874 5874 5875 5874 5874 5874
5829 5830 5831 5833 5836 5836 5836 5837 5839 5840 5841 5842 5844 5848 5846 5847 5848 5849 5851 5852 5853 5854 5856 5857 5858 5860 5861 5863 5864 5865 5866 5868 5869 5870 5871 5871 5872 5872 5872 5872 5873 5872 5872 5872
5827 5828 5830 5832 5832 5833 5834 5836 5837 5838 5839 5840 5842 5844 5845 5845 5846 5848 5849 5850 5851 5852 5853 5855 5856 5857 5859 5860 5862 5863 5864 5866 5867 5868 5869 5869 5870 5870 5870 5870 5870 5870 5870 5870
5824 5825 5826 5828 5829 5830 5832 5833 5834 5836 5837 5838 5840 5841 5843 5843 5845 5846 5847 5848 5849 5850 5851 5852 5853 5855 5856 5858 5859 5860 5862 5863 5864 5865 5866 5867 5867 5867 5868 5868 5868 5868 5868 5867
5821 5822 5824 5825 5826 5827 5829 5830 5831 5833 5834 5836 5837 5839 5840 5841 5842 5843 5844 5845 5846 5848 5849 5850 5851 5852 5854 5855 5856 5858 5859 5860 5861 5862 5863 5864 5864 5865 5865 5865 5865 5865 5865 5865
5817 5819 5821 5822 5823 5824 5826 5828 5829 5830 5832 5833 5835 5837 5837 5839 5840 5841 5842 5843 5844 5845 5846 5847 5848 5850 5851 5852 5853 5855 5856 5857 5858 5859 5860 5861 5861 5861 5862 5862 5862 5862 5862 5861
5813 5815 5816 5818 5820 5821 5826 5825 5826 5827 5829 5830 5832 5833 5834 5836 5837 5838 5839 5840 5841 5842 5843 5844 5845 5846 5847 5848 5850 5851 5852 5854 5855 5856 5856 5857 5858 5858 5858 5858 5858 5858 5858 5858
5809 5811 5812 5814 5815 5817 5820 5821 5822 5824 5826 5827 5828 5830 5831 5832 5833 5834 5835 5836 5837 5838 5839 5840 5841 5843 5844 5845 5846 5847 5849 5850 5851 5852 5853 5853 5854 5854 5854 5854 5854 5854 5854 5853
5804 5806 5808 5809 5811 5813 5817 5817 5818 5820 5822 5823 5824 5826 5827 5828 5830 5832 5832 5832 5833 5834 5835 5836 5837 5839 5840 5841 5842 5844 5845 5846 5847 5848 5848 5849 5849 5850 5850 5850 5850 5850 5849 5849
5799 5800 5802 5805 5806 5809 5811 5812 5814 5817 5819 5819 5820 5821 5822 5824 5825 5827 5827 5828 5829 5830 5831 5832 5833 5835 5836 5837 5838 5839 5841 5842 5843 5843 5844 5844 5845 5845 5845 5845 5845 5845 5844 5844
5793 5795 5797 5799 5801 5806 5806 5807 5809 5811 5812 5813 5815 5816 5818 5819 5820 5821 5822 5823 5824 5825 5827 5828 5829 5830 5832 5833 5834 5835 5836 5837 5838 5838 5839 5839 5839 5840 5840 5840 5839 5839 5839 5838
5786 5790 5791 5794 5798 5799 5800 5802 5803 5805 5807 5808 5810 5811 5813 5814 5815 5816 5817 5818 5820 5821 5822 5823 5824 5825 5827 5828 5829 5830 5831 5831 5832 5833 5833 5834 5834 5834 5834 5834 5834 5833 5833 5832
5780 5782 5785 5788 5790 5792 5794 5796 5798 5799 5801 5802 5804 5806 5807 5808 5810 5811 5812 5813 5814 5815 5816 5817 5819 5820 5821 5822 5823 5824 5825 5826 5826 5827 5827 5828 5828 5828 5828 5828 5827 5827 5826 5825
5773 5776 5778 5781 5784 5786 5788 5790 5792 5793 5795 5796 5798 5799 5801 5802 5803 5805 5806 5807 5808 5810 5811 5812 5813 5814 5815 5816 5817 5818 5819 5819 5820 5821 5821 5821 5821 5821 5821 5821 5820 5820 5819 5818
5767 5770 5772 5775 5777 5779 5782 5783 5785 5787 5788 5790 5792 5793 5794 5795 5797 5798 5799 5800 5802 5803 5804 5806 5807 5808 5809 5810 5811 5811 5812 5813 5813 5814 5814 5814 5814 5814 5813 5813 5813 5812 5811 5810